User: anonymous   Login
Location: Unspecified
(0.0000°N, 0.0000°E)
Time: 21:21:06
(UTC+00:00)
Language:

CUTE 1.7 + AOD 2 - Orbit

View from above orbital plane
View from above orbital plane
View from above satellite
View from above satellite

Ground track
Ground track

The orbit data is extracted from the following two-line orbital elements,

1 32785U 08021C   17229.37304825  .00000241  00000-0  31929-4 0  9994
2 32785  97.5643 250.8442 0012281 332.1128  27.9430 14.87923239503999
Epoch (UTC): 17 August 2017 08:57:11
Eccentricity: 0.0012281
inclination: 97.5643°
perigee height: 596 km
apogee height: 613 km
right ascension of ascending node: 250.8442°
argument of perigee: 332.1128°
revolutions per day: 14.87923239
mean anomaly at epoch: 27.9430°
orbit number at epoch: 50399

The dashed part of the orbit path shows where the satellite is in the earth's shadow,  

DLR